EHI
0 0 0 0 0 0 0 0 0 0 0 0 0 0 0 0 0 0 3 12 23 27 31 43 55 60 67 70 66 60 53 47 44 39 33 30 24 15 8 5 4 3 3 3 3 3 2 1 0
0 0 0 0 0 0 0 0 0 0 0 0 0 0 0 1 1 1 3 13 23 27 30 41 53 59 65 67 64 58 51 47 44 39 33 28 22 14 8 5 4 3 4 4 3 3 1 0 0
0 0 0 0 0 0 0 0 0 0 0 0 0 0 0 1 2 2 5 16 24 26 27 36 49 56 60 63 62 56 49 45 42 38 31 25 18 11 7 6 5 4 5 4 3 2 1 0 0
0 0 0 0 0 0 0 0 0 0 0 0 0 0 1 2 2 3 9 19 25 25 25 32 43 51 55 59 59 55 48 43 40 36 30 23 16 9 7 6 5 5 5 4 3 1 0 0 0
0 0 0 0 0 0 0 0 0 0 0 0 0 2 4 3 1 4 12 18 21 23 24 29 38 44 49 53 54 52 46 41 37 34 29 22 14 9 8 7 6 5 4 3 2 1 0 0 0
0 0 0 0 0 0 0 0 0 0 0 0 1 4 6 4 2 5 11 13 14 18 22 26 32 39 43 45 47 47 43 38 35 31 26 19 12 10 10 9 7 5 3 3 2 1 0 0 0
0 0 0 0 0 0 0 0 0 0 0 0 2 4 7 4 2 5 9 10 10 14 18 21 26 32 36 36 37 38 36 33 30 26 21 14 10 9 9 8 7 4 3 3 2 1 0 0 0
0 0 0 0 0 0 0 0 0 0 0 0 1 4 6 5 4 6 9 10 11 12 14 16 18 22 25 26 28 27 25 24 22 19 13 8 6 6 6 6 5 4 3 3 1 0 0 0 0
0 0 0 0 0 0 0 0 0 0 0 0 1 3 5 5 5 7 9 10 10 10 10 11 13 15 17 19 21 20 17 16 15 12 7 4 3 3 4 3 3 3 3 2 1 0 0 0 0
0 0 0 0 0 0 0 0 0 0 0 1 1 3 5 5 5 5 6 7 7 6 7 8 9 11 12 14 15 15 14 13 12 8 5 4 3 3 3 1 1 2 2 1 0 0 0 0 0
0 0 0 0 0 0 0 0 0 0 1 1 1 3 5 5 4 3 3 3 3 3 4 5 6 6 8 9 10 11 12 12 10 6 4 4 3 3 3 1 0 1 1 0 0 0 0 0 0
0 0 0 0 0 0 0 0 0 0 1 1 1 3 4 4 3 1 1 1 1 1 2 3 2 2 4 6 7 8 8 8 6 4 4 4 3 3 3 2 1 0 0 0 0 0 0 0 0
0 0 0 0 0 0 0 0 0 0 1 2 2 3 3 3 2 1 0 0 0 0 1 1 1 1 2 3 4 5 4 3 2 2 3 3 2 2 3 2 1 0 0 0 0 0 0 0 0
0 0 0 0 0 0 0 0 0 0 1 2 2 2 2 2 1 0 0 0 0 0 0 0 0 0 1 1 2 2 2 1 1 1 2 2 1 1 1 1 0 0 0 0 0 0 0 0 0
0 0 0 0 0 0 0 0 0 0 1 1 1 1 1 1 0 0 0 0 1 1 1 0 1 0 0 0 0 1 1 0 0 1 2 2 1 0 0 0 0 0 0 0 0 0 0 0 0
0 0 0 0 0 0 0 0 0 0 0 0 0 0 0 0 0 0 0 0 1 1 1 0 0 0 0 0 0 0 0 0 0 0 1 1 1 0 0 0 0 0 0 0 0 0 0 0 0
0 0 0 0 0 0 0 0 0 0 0 0 0 0 0 0 0 0 0 0 0 0 0 0 0 0 0 0 0 0 0 0 0 0 0 0 0 0 0 0 0 0 0 0 0 0 0 0 0
0 0 0 0 0 0 0 0 0 0 0 0 0 0 0 0 0 0 0 0 0 0 0 0 0 0 0 0 0 0 0 0 0 0 0 0 0 0 0 0 0 0 0 0 0 0 0 0 0
0 0 0 0 0 0 0 0 0 0 0 0 0 0 0 0 0 0 0 0 0 0 0 0 0 0 0 0 0 0 0 0 0 0 0 0 0 0 0 0 0 0 0 0 0 0 0 0 0
0 0 0 0 0 0 0 0 0 0 0 0 0 0 0 0 0 0 0 0 0 0 0 0 0 0 0 0 0 0 0 0 0 0 0 0 0 0 0 0 0 0 0 0 0 0 0 0 0
0 0 0 0 0 0 0 0 0 0 0 0 0 0 0 0 0 0 0 0 0 0 0 0 0 0 0 0 0 0 0 0 0 0 0 0 0 0 0 0 0 0 0 0 0 0 0 0 0
0 0 0 0 0 0 0 0 0 0 0 0 0 0 0 0 0 0 0 0 0 0 0 0 0 0 0 0 0 0 0 0 0 0 0 0 0 0 0 0 0 0 0 0 0 0 0 0 0
0 0 0 0 0 0 0 0 0 0 0 0 0 0 0 0 0 0 0 0 0 0 0 0 0 0 0 0 0 0 0 0 0 0 0 0 0 0 0 0 0 0 0 0 0 0 0 0 0
0 0 0 0 0 0 0 0 0 0 0 0 0 0 0 0 0 0 0 0 0 0 0 0 0 0 0 0 0 0 0 0 0 0 0 0 0 0 0 0 0 0 0 0 0 0 0 0 0
0 0 0 0 0 0 0 0 0 0 0 0 0 0 0 0 0 0 0 0 0 0 0 0 0 0 0 0 0 0 0 0 0 0 0 0 0 0 0 0 0 0 0 0 0 0 0 0 0
0 0 0 0 0 0 0 0 0 0 0 0 0 0 0 0 0 0 0 0 0 0 0 0 0 0 0 0 0 0 0 0 0 0 0 0 0 0 0 0 0 0 0 0 0 0 0 0 0
0 0 0 0 0 0 0 0 0 0 0 0 0 0 0 0 0 0 0 0 0 0 0 0 0 0 0 0 0 0 0 0 0 0 0 0 0 0 0 0 0 0 0 0 0 0 0 0 0
0 0 0 0 0 0 0 0 0 0 0 0 0 0 0 0 0 0 0 0 0 0 0 0 0 0 0 0 0 0 0 0 0 0 0 0 0 0 0 0 0 0 0 0 0 0 0 0 0
0 0 0 0 0 0 0 0 0 0 0 0 0 0 0 0 0 0 0 0 0 0 0 0 0 0 0 0 0 0 0 0 0 0 0 0 0 0 0 0 0 0 0 0 0 0 0 0 0
0 0 0 0 0 0 0 0 0 0 0 0 0 0 0 0 0 0 0 0 0 0 0 0 0 0 0 0 0 0 0 0 0 0 0 0 0 0 0 0 0 0 0 0 0 0 0 0 0
Wind_Speed
5 4 2 3 3 2 8 7 3 2 3 3 3 4 5 6 5 4 1 3 7 12 14 16 18 19 19 19 19 18 18 18 17 18 18 18 18 18 18 17 17 17 16 16 16 16 17 16 16
2 2 4 3 3 6 7 6 8 7 4 4 4 3 3 4 1 1 1 1 8 11 11 14 17 18 18 19 19 19 19 18 17 17 17 17 18 18 18 17 17 17 16 16 16 16 16 16 15
3 2 3 3 5 8 7 3 4 5 5 3 4 3 3 2 1 1 1 4 8 8 8 11 16 18 18 18 19 19 19 18 17 17 17 17 18 18 18 17 16 16 16 16 16 16 15 14 13
3 4 3 2 10 7 5 3 3 5 5 2 2 6 5 2 1 1 3 6 7 6 6 9 14 17 18 18 18 19 19 19 18 17 17 17 18 18 17 17 16 15 16 16 16 16 14 13 12
4 4 2 5 8 6 5 6 5 6 5 4 3 4 6 4 1 4 5 6 6 4 4 7 12 15 17 17 18 18 18 18 18 17 17 17 18 17 17 16 16 16 16 16 16 15 14 12 11
4 3 3 7 7 5 5 6 5 5 5 5 3 4 5 2 3 3 4 4 5 5 4 5 10 12 14 16 17 17 18 18 18 17 17 17 17 17 17 17 17 17 17 16 15 14 13 11 10
4 3 4 5 5 6 6 3 3 4 5 5 2 4 5 2 1 2 3 4 4 4 4 4 5 7 10 12 13 15 16 16 17 16 16 15 15 16 17 17 17 17 16 16 15 14 13 11 9
4 3 3 4 5 6 3 2 2 3 5 3 1 4 5 3 4 2 2 3 3 3 3 3 4 5 5 7 11 12 14 15 15 15 14 14 14 15 16 15 15 16 15 15 14 13 12 10 8
3 2 6 6 5 5 3 4 4 3 4 4 4 6 7 6 4 3 0 2 2 3 3 3 4 5 4 5 8 9 12 13 13 12 14 13 9 10 10 12 14 15 15 14 14 13 11 8 6
3 4 8 5 4 5 7 7 6 5 6 6 6 7 7 5 4 4 4 3 3 4 5 3 5 6 5 5 5 5 6 8 8 8 9 7 7 7 9 12 13 14 14 13 13 12 10 6 3
5 7 6 7 7 7 9 9 6 6 11 10 9 10 8 6 6 6 6 6 6 5 5 5 5 6 5 4 4 3 3 5 6 8 8 7 6 6 6 6 7 9 10 7 8 7 4 3 3
5 7 8 6 6 7 9 8 7 10 14 10 10 9 8 8 8 8 8 7 6 6 6 5 5 6 6 5 5 5 4 4 5 7 9 7 6 6 6 5 6 6 5 5 5 4 4 4 4
7 6 7 8 9 10 10 11 10 13 14 11 9 10 10 10 9 9 8 7 6 7 7 6 6 6 6 5 5 6 6 5 6 7 8 9 7 8 7 6 6 6 5 6 5 5 5 4 4
5 6 8 9 10 8 10 13 9 14 10 9 9 9 9 10 10 9 7 7 7 7 7 6 6 6 7 5 5 5 6 5 6 7 8 10 8 8 8 7 7 6 6 6 6 6 5 4 4
3 5 8 7 7 5 5 10 10 13 8 9 9 9 9 9 9 9 8 7 7 7 7 7 7 6 7 6 6 5 5 5 5 6 8 9 9 9 8 7 7 7 6 6 5 5 4 4 4
2 3 5 5 3 3 2 12 9 6 6 8 8 7 7 8 7 7 7 7 7 6 7 7 7 7 7 6 6 4 5 6 5 5 7 9 10 10 9 7 7 7 6 6 6 5 4 4 4
1 3 5 6 3 2 3 11 10 5 5 7 7 6 6 5 5 5 5 6 6 6 6 7 6 7 7 6 5 5 5 5 5 4 6 8 9 10 9 8 7 7 6 5 6 5 4 4 4
3 5 5 6 5 4 6 11 13 7 4 6 6 5 5 4 5 4 3 4 4 4 5 6 6 6 6 5 4 4 4 4 5 5 6 9 9 10 8 7 8 8 6 6 6 6 4 4 4
5 6 9 9 6 6 8 11 11 7 3 4 4 4 4 5 5 2 2 3 3 3 4 6 6 5 5 5 5 5 5 5 5 5 7 9 9 10 8 7 8 8 7 8 7 5 5 3 3
6 7 7 7 4 4 6 9 8 6 4 3 4 4 4 3 3 2 2 1 2 3 4 5 5 5 5 6 5 4 4 4 4 4 6 8 9 10 8 9 8 8 7 8 7 5 4 3 4
5 5 5 5 5 3 4 7 5 5 4 5 6 5 4 2 2 3 2 0 1 1 2 3 5 4 4 5 4 3 3 3 3 4 5 7 8 8 8 9 8 8 8 8 8 8 7 5 4
4 4 5 5 4 4 2 4 6 6 7 8 8 7 5 5 3 1 1 2 1 0 2 3 4 5 4 4 5 5 4 4 4 3 4 6 7 7 7 8 8 8 7 8 8 7 6 7 6
5 4 4 4 2 3 2 1 5 6 8 10 9 8 7 6 3 2 2 2 2 2 2 2 2 3 3 3 4 5 4 3 2 2 4 5 5 6 6 7 7 7 6 7 7 7 6 6 6
3 2 3 1 1 2 3 1 4 5 7 8 8 9 8 8 7 6 5 4 3 3 3 2 2 2 3 4 4 4 4 4 4 2 3 4 4 4 6 6 6 6 6 7 8 8 8 7 6
2 3 3 5 3 2 3 1 3 5 5 5 6 8 9 10 9 8 7 6 5 5 4 3 3 2 2 3 3 3 4 4 4 3 3 4 3 3 4 5 5 5 6 7 6 7 7 8 8
1 2 2 1 2 3 4 2 3 5 5 5 6 7 8 10 9 10 9 7 7 6 6 5 4 3 3 3 2 2 2 2 2 2 2 3 3 3 3 4 4 5 6 7 6 6 6 6 7
0 0 2 2 1 1 3 3 3 6 6 7 7 8 8 8 9 9 9 9 8 7 6 6 5 5 4 4 3 3 2 2 2 2 2 2 2 2 3 3 4 4 4 6 6 5 6 6 7
1 1 2 1 1 1 3 2 3 5 6 7 7 7 7 8 9 9 9 9 8 7 7 7 8 7 5 5 4 3 3 2 2 2 2 1 1 2 2 3 2 2 3 4 5 4 5 6 6
1 1 1 1 2 2 1 3 1 2 2 3 5 6 6 7 8 8 9 9 9 9 9 9 8 8 7 6 5 5 4 4 3 2 1 1 0 1 2 2 3 3 3 3 3 4 5 6 5
1 1 1 1 1 1 2 3 2 1 1 3 4 6 6 7 7 8 8 9 10 10 10 9 9 8 8 6 6 5 5 4 4 2 1 1 0 1 2 2 2 3 3 3 3 4 4 6 6
Wind_Direction
340 347 46 59 77 204 234 235 231 237 235 220 248 235 219 218 209 224 282 131 127 152 164 167 167 164 162 158 155 152 151 150 149 148 146 144 142 140 138 137 136 134 130 127 125 123 119 117 115
355 5 56 75 154 210 242 230 230 243 256 311 310 283 274 259 251 93 56 147 137 148 160 167 168 165 163 160 158 156 155 155 154 153 152 149 147 144 142 141 139 135 132 130 127 124 122 121 119
349 45 93 125 197 208 222 218 220 276 290 305 315 305 278 269 312 175 229 139 132 142 156 165 169 167 165 163 161 160 159 159 158 157 156 154 151 149 146 144 140 138 134 132 130 127 126 124 121
59 54 70 196 230 229 229 261 305 312 314 311 344 306 294 291 269 204 121 120 122 139 150 163 169 170 167 165 164 163 163 162 162 160 159 157 155 152 149 144 141 138 136 135 134 132 131 127 121
66 89 153 233 242 251 271 288 299 297 287 295 329 296 289 301 114 109 109 108 121 131 150 160 164 170 169 168 167 167 166 166 165 163 162 160 158 155 151 146 144 142 140 140 138 137 135 131 124
72 91 184 235 243 258 265 274 289 281 278 289 303 291 273 290 102 111 108 113 124 133 148 162 166 165 169 171 172 170 170 169 168 167 166 163 160 156 153 150 148 148 146 144 143 142 140 137 130
114 136 216 238 254 261 257 266 249 273 283 277 276 281 271 294 13 68 97 109 116 124 133 154 164 162 168 169 172 174 173 171 170 169 167 163 160 157 155 154 153 152 150 147 147 147 147 145 136
133 132 230 237 241 255 258 288 259 262 269 271 234 245 264 294 333 13 92 110 121 129 133 156 161 159 165 169 171 172 172 171 170 167 163 161 159 158 156 155 155 154 152 150 150 152 153 150 142
112 156 226 224 225 250 285 296 288 269 245 253 241 244 262 293 318 339 122 111 132 159 158 169 161 160 160 169 171 171 169 169 167 165 160 157 158 157 156 157 156 154 154 154 156 158 158 152 146
144 211 231 226 228 260 282 281 285 283 277 269 270 271 275 288 295 291 251 199 189 197 179 178 172 165 163 174 163 170 174 168 165 164 163 160 157 157 156 157 157 155 155 158 161 163 160 151 143
185 222 240 246 254 263 274 275 265 256 264 259 259 274 277 284 280 266 248 220 205 202 194 180 184 173 170 172 168 168 171 169 166 164 163 158 154 153 152 155 156 155 155 157 160 158 163 163 164
219 243 247 261 266 265 265 267 263 247 253 254 248 254 264 266 265 255 246 234 220 205 197 188 190 184 177 175 177 173 173 176 174 171 166 161 160 161 160 162 160 161 161 161 162 166 176 180 185
234 257 261 271 277 266 269 265 265 265 264 264 257 258 256 258 262 255 237 226 217 210 198 193 189 187 178 176 182 181 179 181 180 175 173 169 168 170 167 166 166 167 165 168 169 175 183 192 198
245 260 277 279 274 270 266 270 262 265 268 266 260 260 262 258 254 256 235 217 211 209 196 187 189 191 177 179 188 179 182 181 181 179 177 172 170 171 170 169 171 172 173 174 177 183 187 196 196
278 288 292 274 263 260 273 275 252 261 269 263 258 260 268 264 253 246 237 216 212 205 193 186 187 189 183 181 188 179 180 175 183 184 179 176 174 172 171 173 176 178 176 174 177 183 183 188 194
294 290 286 286 271 258 231 271 274 267 253 262 263 265 270 269 257 248 242 222 211 201 191 189 190 190 184 181 179 178 181 177 181 187 181 177 176 175 171 174 180 179 174 175 178 180 181 188 190
295 274 269 293 278 262 231 275 295 293 260 270 273 271 270 264 266 254 242 224 208 200 191 183 182 184 182 178 176 177 180 182 178 185 187 180 176 177 173 176 177 175 175 178 182 182 180 184 191
252 265 273 281 284 274 268 276 292 304 277 275 280 283 280 273 269 264 255 231 212 199 191 179 173 180 180 173 172 177 178 186 181 185 196 184 176 177 174 174 174 172 174 180 181 179 182 182 183
247 265 279 280 279 289 274 281 293 310 314 305 303 300 283 269 263 267 252 225 194 189 186 175 168 182 179 173 174 179 184 187 182 188 200 191 179 176 177 176 176 176 181 186 180 176 178 184 165
250 267 279 288 297 292 282 290 298 315 309 312 318 319 304 301 322 309 285 203 156 193 186 168 169 179 187 179 170 173 175 186 178 180 195 193 180 177 181 181 180 181 179 183 183 172 175 184 171
256 244 253 275 312 302 314 319 328 337 342 354 350 344 334 335 332 310 300 93 117 184 174 172 179 181 181 168 155 162 164 165 169 179 189 192 179 176 181 184 182 184 182 186 189 183 183 188 194
269 235 240 272 315 308 345 311 323 341 357 6 0 360 354 353 350 344 55 74 83 109 133 148 160 163 165 163 161 171 183 176 185 182 185 188 180 177 180 183 186 187 187 188 191 189 189 183 192
244 262 267 269 267 299 305 238 310 347 358 356 359 1 5 4 12 34 51 65 66 75 118 131 139 145 155 156 163 175 182 162 152 154 177 188 179 179 181 181 185 189 190 191 190 191 192 192 196
254 307 318 346 77 326 299 225 317 346 337 344 2 10 12 15 23 28 30 45 49 52 71 87 114 121 141 151 158 169 166 158 152 161 191 188 181 179 184 182 184 191 194 194 194 194 196 199 200
46 54 26 9 9 289 324 32 313 327 345 359 8 10 13 19 22 23 29 35 36 38 42 53 81 86 104 127 139 153 164 158 160 171 179 175 173 181 190 188 189 198 202 198 195 196 199 198 197
345 113 132 179 263 304 350 352 312 339 5 16 21 23 21 20 22 26 28 31 35 38 43 53 69 75 79 89 105 125 146 134 150 170 167 164 171 183 190 192 196 205 206 201 197 202 206 204 204
48 91 182 142 312 333 323 318 323 13 24 20 23 28 24 20 22 23 25 30 34 36 37 48 61 66 64 67 75 75 79 103 133 146 153 161 163 178 185 199 200 205 204 200 198 206 209 207 210
155 170 88 106 102 334 322 321 323 343 4 11 18 23 19 19 24 24 24 25 29 32 32 38 49 53 53 53 54 58 59 65 75 97 112 146 167 179 184 205 203 202 206 205 204 210 212 211 218
0 15 69 131 156 151 293 294 308 301 347 11 13 21 24 26 25 26 28 26 30 32 33 36 37 39 42 43 49 50 44 48 51 61 79 121 172 198 193 205 204 205 214 211 209 217 211 213 222
214 217 164 139 276 145 156 273 7 30 2 33 21 16 24 30 27 28 30 30 30 29 27 30 30 29 28 30 39 40 34 37 40 48 49 47 234 217 201 200 203 212 220 219 217 226 223 218 220